Location: Newark
(49.1000°N, 0.4667°W)
Time: 02:09:35
(UTC+00:00)

LO-87 - Visible Passes

Search period start: 11 July 2020 00:00
Search period end: 21 July 2020 00:00
Orbit: 472 x 491 km, 97.4° (Epoch: 10 July)

Date Brightness Start Highest point End Pass type
(mag) Time Alt. Az. Time Alt. Az. Time Alt. Az.
11 Jul ? 22:39:52 33° SE 22:41:05 49° ENE 22:44:32 10° N visible
12 Jul ? 00:14:10 13° W 00:14:46 13° W 00:16:36 10° WNW visible
12 Jul ? 22:14:21 19° ESE 22:15:55 26° ENE 22:18:55 10° N visible
12 Jul ? 23:48:39 24° WSW 23:49:16 25° W 23:52:16 10° NW visible
13 Jul ? 21:48:50 10° E 21:50:50 15° ENE 21:52:56 10° NNE visible
13 Jul ? 23:23:08 41° SW 23:23:51 49° W 23:27:20 10° NNW visible
14 Jul ? 22:57:38 48° SSE 22:58:32 81° ENE 23:02:07 10° N visible
15 Jul ? 22:32:07 29° ESE 22:33:18 40° ENE 22:36:40 10° N visible
16 Jul ? 00:06:25 16° W 00:06:53 16° W 00:09:14 10° NW visible
16 Jul ? 22:06:37 17° E 22:08:10 22° ENE 22:10:58 10° NNE visible
16 Jul ? 23:40:55 29° WSW 23:41:24 30° W 23:44:37 10° NNW visible
17 Jul ? 21:41:29 10° E 21:43:06 13° ENE 21:44:44 10° NNE visible
17 Jul ? 23:15:24 51° SSW 23:16:01 62° W 23:19:34 10° NNW visible
18 Jul ? 22:49:54 46° SE 22:50:43 65° ENE 22:54:17 10° N visible
19 Jul ? 00:24:12 11° W 00:24:32 11° W 00:25:25 10° WNW visible
19 Jul ? 22:24:23 26° ESE 22:25:31 33° ENE 22:28:46 10° N visible
19 Jul ? 23:58:41 20° W 23:58:59 20° W 00:01:42 10° NW visible
20 Jul ? 21:58:52 15° E 22:00:24 19° ENE 22:02:57 10° NNE visible
20 Jul ? 23:33:10 36° WSW 23:33:32 38° W 23:36:54 10° NNW visible
